Главная страница
METAR-TAF:

METAR-TAF

Аэропорты :

Нефтяная платформа

F3-fb-1, Нидерланды

широта: 54-51-14N, долгота: 4-41-36E, высота над уровнем моря: 33 м

Текущие метеонаблюдения

Эта сводка был подготовлена 17 минут назад, в 01:25 UTC
Ветер 42 Узел от юго-восточный
Температура 3°C
Влажность 70%
Давление 1007 hPa
Видимость 10 км и более

METAR: EHFD 160125Z AUTO 14042KT 9999 SCT015/// OVC019/// 03/M02 Q1007 W///H///

Время: 02:42 (01:42 UTC)


TAF: отсутствует

Метеонаблюдения и прогнозы для более 4000 аэропортов (сводки METAR и TAF).

Имеющиеся станции представлены на карте желтыми и красными точками.

Чтобы увидеть название станции, наведите на нее мышь.

Затем щелкните, чтобы увидеть метеонаблюдения и метеопрогнозы.

Управление картой: чтобы увеличить масштаб, щелкните зеленые кнопки с черным крестиком; чтобы уменьшить масштаб, щелкните зеленую кнопку с тире; для просмотра соседних карт щелкайте зеленые стрелки.


METAR-TAF: